N91CH KSLC-KBOI

Flight info

Callsign N91CH
Flight time 0h 47m
Altitude 34000
Route CGULL1 TWF BROPH SPUUD4
Aircraft HDJT/L-SABDGRWY/H

Departure

Time 2026-05-04 23:48
Airport Salt Lake City International Airport (KSLC)

Arrival

Time 2026-05-05 00:35
Airport Boise Air Terminal/Gowen Field (KBOI)
Time Latitude Longitude Altitude Speed Heading
2026-05-04 23:38 40.77525 -111.95923 4257 ft 0 kts 270°
2026-05-04 23:39 40.77525 -111.95944 4257 ft 6 kts 271°
2026-05-04 23:39 40.77526 -111.96042 4257 ft 13 kts 276°
2026-05-04 23:39 40.77583 -111.96064 4257 ft 12 kts 359°
2026-05-04 23:40 40.77690 -111.96063 4257 ft 18 kts
2026-05-04 23:40 40.77831 -111.96063 4256 ft 18 kts 17°
2026-05-04 23:40 40.77938 -111.96002 4256 ft 20 kts
2026-05-04 23:40 40.78097 -111.96004 4256 ft 26 kts
2026-05-04 23:41 40.78257 -111.96003 4229 ft 24 kts 358°
2026-05-04 23:41 40.78441 -111.96004 4229 ft 26 kts 360°
2026-05-04 23:41 40.78582 -111.96030 4229 ft 17 kts 303°
2026-05-04 23:41 40.78659 -111.96162 4229 ft 21 kts 298°
2026-05-04 23:42 40.78658 -111.96365 4229 ft 24 kts 258°
2026-05-04 23:42 40.78618 -111.96596 4229 ft 29 kts 257°
2026-05-04 23:42 40.78569 -111.96863 4229 ft 30 kts 256°
2026-05-04 23:42 40.78537 -111.97122 4228 ft 27 kts 275°
2026-05-04 23:43 40.78587 -111.97348 4229 ft 25 kts 287°
2026-05-04 23:43 40.78687 -111.97505 4230 ft 24 kts 332°
2026-05-04 23:43 40.78838 -111.97639 4230 ft 26 kts 325°
2026-05-04 23:43 40.78995 -111.97709 4230 ft 23 kts 358°
2026-05-04 23:44 40.79169 -111.97730 4229 ft 27 kts 353°
2026-05-04 23:44 40.79348 -111.97751 4229 ft 25 kts 355°
2026-05-04 23:44 40.79523 -111.97771 4229 ft 26 kts 355°
2026-05-04 23:44 40.79712 -111.97795 4229 ft 29 kts 354°
2026-05-04 23:45 40.79914 -111.97818 4229 ft 29 kts 355°
2026-05-04 23:45 40.80106 -111.97839 4230 ft 27 kts 354°
2026-05-04 23:45 40.80284 -111.97844 4230 ft 24 kts 15°
2026-05-04 23:45 40.80442 -111.97827 4230 ft 22 kts 355°
2026-05-04 23:46 40.80599 -111.97845 4229 ft 24 kts 354°
2026-05-04 23:46 40.80733 -111.97852 4229 ft 13 kts 29°
2026-05-04 23:46 40.80737 -111.97743 4227 ft 14 kts 110°
2026-05-04 23:46 40.80721 -111.97692 4227 ft 3 kts 171°
2026-05-04 23:47 40.80719 -111.97692 4227 ft 0 kts 176°
2026-05-04 23:47 40.80534 -111.97672 4231 ft 62 kts 175°
2026-05-04 23:47 40.79866 -111.97591 4248 ft 122 kts 169°
2026-05-04 23:47 40.78987 -111.97472 4597 ft 138 kts 168°
2026-05-04 23:48 40.77932 -111.97348 4858 ft 167 kts 185°
2026-05-04 23:48 40.76818 -111.98050 5221 ft 193 kts 226°
2026-05-04 23:48 40.76193 -111.99690 5609 ft 214 kts 262°
2026-05-04 23:48 40.76448 -112.01596 6344 ft 215 kts 297°
2026-05-04 23:49 40.77411 -112.03148 6868 ft 226 kts 313°
2026-05-04 23:49 40.78569 -112.04658 7251 ft 236 kts 313°
2026-05-04 23:49 40.79727 -112.06179 8015 ft 236 kts 313°
2026-05-04 23:49 40.80886 -112.07723 8711 ft 238 kts 314°
2026-05-04 23:50 40.81663 -112.08757 9127 ft 241 kts 313°
2026-05-04 23:50 40.82847 -112.10329 9785 ft 243 kts 313°
2026-05-04 23:50 40.84044 -112.11919 10388 ft 246 kts 314°
2026-05-04 23:50 40.85256 -112.13531 10943 ft 250 kts 313°
2026-05-04 23:51 40.86493 -112.15178 11522 ft 253 kts 313°
2026-05-04 23:51 40.87736 -112.16831 12165 ft 255 kts 314°
2026-05-04 23:51 40.88990 -112.18501 12790 ft 257 kts 314°
2026-05-04 23:51 40.90254 -112.20188 13434 ft 260 kts 314°
2026-05-04 23:52 40.91532 -112.21893 14035 ft 262 kts 314°
2026-05-04 23:52 40.92822 -112.23616 14598 ft 265 kts 314°
2026-05-04 23:52 40.94125 -112.25356 15177 ft 268 kts 314°
2026-05-04 23:52 40.95443 -112.27117 15748 ft 271 kts 313°
2026-05-04 23:53 40.96773 -112.28898 16354 ft 273 kts 314°
2026-05-04 23:53 40.98116 -112.30694 16959 ft 276 kts 314°
2026-05-04 23:53 40.99471 -112.32509 17549 ft 279 kts 314°
2026-05-04 23:53 41.00842 -112.34345 18137 ft 281 kts 313°
2026-05-04 23:54 41.02216 -112.36187 18723 ft 282 kts 314°
2026-05-04 23:54 41.03600 -112.38043 19255 ft 284 kts 314°
2026-05-04 23:54 41.04995 -112.39916 19784 ft 287 kts 314°
2026-05-04 23:54 41.06405 -112.41809 20324 ft 290 kts 314°
2026-05-04 23:55 41.07994 -112.43457 20885 ft 292 kts 328°
2026-05-04 23:55 41.09734 -112.44879 21440 ft 295 kts 327°
2026-05-04 23:55 41.13222 -112.47834 22635 ft 300 kts 327°
2026-05-04 23:56 41.14991 -112.49318 23221 ft 302 kts 328°
2026-05-04 23:56 41.16775 -112.50818 23719 ft 305 kts 326°
2026-05-04 23:56 41.18480 -112.52505 24194 ft 307 kts 322°
2026-05-04 23:56 41.20176 -112.54249 24675 ft 309 kts 322°
2026-05-04 23:57 41.21887 -112.55985 25171 ft 310 kts 323°
2026-05-04 23:57 41.23610 -112.57727 25647 ft 312 kts 322°
2026-05-04 23:57 41.25335 -112.59481 26128 ft 313 kts 322°
2026-05-04 23:57 41.27069 -112.61247 26585 ft 315 kts 322°
2026-05-04 23:58 41.28681 -112.63219 27024 ft 316 kts 312°
2026-05-04 23:58 41.30152 -112.65400 27459 ft 317 kts 311°
2026-05-04 23:58 41.31627 -112.67592 27874 ft 320 kts 312°
2026-05-04 23:58 41.33133 -112.69781 28269 ft 322 kts 312°
2026-05-04 23:59 41.34635 -112.71960 28578 ft 326 kts 314°
2026-05-04 23:59 41.36168 -112.74203 28963 ft 328 kts 314°
2026-05-04 23:59 41.37706 -112.76462 29340 ft 330 kts 314°
2026-05-04 23:59 41.39254 -112.78728 29710 ft 332 kts 314°
2026-05-05 00:00 41.40791 -112.81035 30010 ft 334 kts 312°
2026-05-05 00:00 41.41816 -112.82622 30221 ft 334 kts 312°
2026-05-05 00:00 41.43847 -112.85685 30736 ft 332 kts 312°
2026-05-05 00:00 41.45365 -112.87995 31114 ft 330 kts 311°
2026-05-05 00:01 41.46864 -112.90300 31495 ft 329 kts 310°
2026-05-05 00:01 41.48364 -112.92601 31835 ft 328 kts 312°
2026-05-05 00:01 41.49865 -112.94896 32173 ft 328 kts 311°
2026-05-05 00:01 41.51362 -112.97189 32503 ft 327 kts 310°
2026-05-05 00:02 41.52850 -112.99474 32879 ft 325 kts 310°
2026-05-05 00:02 41.54335 -113.01754 33196 ft 325 kts 310°
2026-05-05 00:02 41.55818 -113.04034 33511 ft 325 kts 309°
2026-05-05 00:02 41.57305 -113.06321 33680 ft 329 kts 309°
2026-05-05 00:03 41.58827 -113.08665 33680 ft 338 kts 309°
2026-05-05 00:03 41.61976 -113.13516 33694 ft 353 kts 309°
2026-05-05 00:04 41.65242 -113.18558 33700 ft 364 kts 311°
2026-05-05 00:04 41.68598 -113.23746 33709 ft 373 kts 311°
2026-05-05 00:05 41.72024 -113.29053 33712 ft 380 kts 311°
2026-05-05 00:05 41.75501 -113.34447 33715 ft 385 kts 310°
2026-05-05 00:06 41.79016 -113.39912 33730 ft 389 kts 311°
2026-05-05 00:06 41.82559 -113.45429 33727 ft 392 kts 311°
2026-05-05 00:07 41.86124 -113.50992 33744 ft 394 kts 311°
2026-05-05 00:07 41.89682 -113.56552 33744 ft 397 kts 311°
2026-05-05 00:08 41.93278 -113.62187 33747 ft 398 kts 311°
2026-05-05 00:08 41.96885 -113.67845 33746 ft 399 kts 311°
2026-05-05 00:09 42.00496 -113.73522 33748 ft 400 kts 311°
2026-05-05 00:09 42.04109 -113.79213 33745 ft 400 kts 311°
2026-05-05 00:10 42.07746 -113.84952 33744 ft 400 kts 311°
2026-05-05 00:10 42.11334 -113.90627 33743 ft 401 kts 311°
2026-05-05 00:11 42.14949 -113.96351 33729 ft 401 kts 311°
2026-05-05 00:11 42.18565 -114.02087 33720 ft 401 kts 311°
2026-05-05 00:12 42.22193 -114.07812 33715 ft 402 kts 312°
2026-05-05 00:12 42.25818 -114.13565 33705 ft 403 kts 312°
2026-05-05 00:13 42.29450 -114.19330 33702 ft 403 kts 312°
2026-05-05 00:13 42.33077 -114.25103 33705 ft 403 kts 312°
2026-05-05 00:14 42.36706 -114.30889 33692 ft 403 kts 312°
2026-05-05 00:14 42.40334 -114.36682 33692 ft 404 kts 312°
2026-05-05 00:15 42.43959 -114.42486 33778 ft 404 kts 312°
2026-05-05 00:15 42.47582 -114.48295 33782 ft 404 kts 312°
2026-05-05 00:16 42.51223 -114.54102 33518 ft 405 kts 313°
2026-05-05 00:16 42.53051 -114.57003 32992 ft 404 kts 313°
2026-05-05 00:16 42.54873 -114.59912 32454 ft 406 kts 313°
2026-05-05 00:16 42.56705 -114.62843 31903 ft 408 kts 313°
2026-05-05 00:17 42.58541 -114.65778 31352 ft 409 kts 314°
2026-05-05 00:17 42.60381 -114.68721 30789 ft 409 kts 314°
2026-05-05 00:17 42.62225 -114.71673 30241 ft 410 kts 314°
2026-05-05 00:17 42.64071 -114.74634 29670 ft 410 kts 314°
2026-05-05 00:18 42.65911 -114.77588 29103 ft 410 kts 314°
2026-05-05 00:18 42.67753 -114.80547 28554 ft 411 kts 313°
2026-05-05 00:18 42.69602 -114.83519 28009 ft 411 kts 313°
2026-05-05 00:18 42.71438 -114.86477 27460 ft 408 kts 313°
2026-05-05 00:19 42.73323 -114.89327 26915 ft 403 kts 316°
2026-05-05 00:19 42.75230 -114.92033 26392 ft 401 kts 316°
2026-05-05 00:19 42.77153 -114.94761 25859 ft 398 kts 316°
2026-05-05 00:19 42.79045 -114.97488 25324 ft 394 kts 316°
2026-05-05 00:20 42.80919 -115.00194 24818 ft 391 kts 315°
2026-05-05 00:20 42.82786 -115.02876 24304 ft 389 kts 315°
2026-05-05 00:20 42.84644 -115.05541 23795 ft 386 kts 316°
2026-05-05 00:20 42.86484 -115.08189 23301 ft 384 kts 315°
2026-05-05 00:21 42.88311 -115.10825 22754 ft 381 kts 315°
2026-05-05 00:21 42.90122 -115.13443 22281 ft 378 kts 315°
2026-05-05 00:21 42.91919 -115.16039 21778 ft 375 kts 315°
2026-05-05 00:21 42.93706 -115.18620 21279 ft 373 kts 315°
2026-05-05 00:22 42.95478 -115.21193 20781 ft 371 kts 315°
2026-05-05 00:22 42.97233 -115.23747 20288 ft 368 kts 315°
2026-05-05 00:22 42.98978 -115.26282 19805 ft 365 kts 314°
2026-05-05 00:22 43.00715 -115.28807 19323 ft 363 kts 315°
2026-05-05 00:23 43.02436 -115.31313 18846 ft 360 kts 314°
2026-05-05 00:23 43.04144 -115.33803 18374 ft 358 kts 314°
2026-05-05 00:23 43.05844 -115.36281 17890 ft 356 kts 314°
2026-05-05 00:23 43.07527 -115.38739 17615 ft 354 kts 314°
2026-05-05 00:24 43.09203 -115.41187 17176 ft 352 kts 314°
2026-05-05 00:24 43.10870 -115.43622 16721 ft 349 kts 314°
2026-05-05 00:24 43.12518 -115.46036 16262 ft 346 kts 314°
2026-05-05 00:24 43.14153 -115.48433 15815 ft 343 kts 314°
2026-05-05 00:25 43.15778 -115.50812 15367 ft 341 kts 314°
2026-05-05 00:25 43.17392 -115.53170 14917 ft 338 kts 314°
2026-05-05 00:25 43.18970 -115.55481 14481 ft 324 kts 314°
2026-05-05 00:25 43.20483 -115.57698 14061 ft 312 kts 314°
2026-05-05 00:26 43.21947 -115.59846 13657 ft 306 kts 315°
2026-05-05 00:26 43.23388 -115.61961 13227 ft 302 kts 315°
2026-05-05 00:26 43.24818 -115.64056 12823 ft 300 kts 315°
2026-05-05 00:26 43.26240 -115.66144 12434 ft 299 kts 315°
2026-05-05 00:27 43.27667 -115.68204 12038 ft 296 kts 318°
2026-05-05 00:27 43.29164 -115.70119 11653 ft 293 kts 320°
2026-05-05 00:27 43.30651 -115.72008 11266 ft 291 kts 319°
2026-05-05 00:27 43.32129 -115.73907 10882 ft 291 kts 319°
2026-05-05 00:28 43.33593 -115.75796 10494 ft 285 kts 319°
2026-05-05 00:28 43.35007 -115.77617 10125 ft 273 kts 320°
2026-05-05 00:28 43.36368 -115.79368 9766 ft 264 kts 319°
2026-05-05 00:28 43.37690 -115.81066 9408 ft 257 kts 319°
2026-05-05 00:29 43.38867 -115.82888 9063 ft 254 kts 311°
2026-05-05 00:29 43.39974 -115.84782 8733 ft 254 kts 311°
2026-05-05 00:29 43.41098 -115.86657 8392 ft 254 kts 311°
2026-05-05 00:29 43.42217 -115.88530 8067 ft 252 kts 311°
2026-05-05 00:30 43.43198 -115.90185 7775 ft 249 kts 310°
2026-05-05 00:30 43.43548 -115.90776 7659 ft 249 kts 311°
2026-05-05 00:30 43.44611 -115.92640 7320 ft 247 kts 307°
2026-05-05 00:30 43.45588 -115.94577 7001 ft 246 kts 306°
2026-05-05 00:31 43.46563 -115.96504 6688 ft 246 kts 306°
2026-05-05 00:31 43.47544 -115.98426 6367 ft 245 kts 306°
2026-05-05 00:31 43.48517 -116.00338 6039 ft 243 kts 306°
2026-05-05 00:31 43.49461 -116.02258 5710 ft 241 kts 301°
2026-05-05 00:32 43.50172 -116.04305 5402 ft 233 kts 296°
2026-05-05 00:32 43.50819 -116.06211 5135 ft 200 kts 296°
2026-05-05 00:32 43.51410 -116.07891 4909 ft 189 kts 296°
2026-05-05 00:32 43.51940 -116.09466 4698 ft 174 kts 295°
2026-05-05 00:33 43.52442 -116.10939 4484 ft 166 kts 295°
2026-05-05 00:33 43.52930 -116.12348 4261 ft 157 kts 297°
2026-05-05 00:33 43.53348 -116.13576 4063 ft 129 kts 297°
2026-05-05 00:33 43.53712 -116.14659 3846 ft 124 kts 298°
2026-05-05 00:34 43.54063 -116.15716 3675 ft 118 kts 298°
2026-05-05 00:34 43.54400 -116.16718 3532 ft 113 kts 300°
2026-05-05 00:34 43.54744 -116.17686 3381 ft 115 kts 297°
2026-05-05 00:34 43.55095 -116.18689 3234 ft 119 kts 298°
2026-05-05 00:35 43.55430 -116.19698 3114 ft 115 kts 300°
2026-05-05 00:35 43.55775 -116.20675 2947 ft 109 kts 300°
2026-05-05 00:35 43.56083 -116.21586 2885 ft 97 kts 300°
2026-05-05 00:35 43.56311 -116.22232 2874 ft 38 kts 297°
2026-05-05 00:36 43.56378 -116.22415 2875 ft 14 kts 319°
2026-05-05 00:36 43.56468 -116.22422 2875 ft 15 kts
2026-05-05 00:36 43.56590 -116.22411 2875 ft 19 kts
2026-05-05 00:36 43.56706 -116.22424 2876 ft 14 kts 311°
2026-05-05 00:37 43.56760 -116.22572 2875 ft 20 kts 295°
2026-05-05 00:37 43.56809 -116.22646 2876 ft 9 kts 30°
2026-05-05 00:37 43.56880 -116.22600 2876 ft 13 kts 18°
2026-05-05 00:37 43.56923 -116.22585 2876 ft 0 kts 16°
2026-05-05 00:38 43.56926 -116.22584 2876 ft 3 kts 15°
2026-05-05 00:39 43.56948 -116.22580 2876 ft 5 kts 345°
2026-05-05 00:39 43.56968 -116.22605 2876 ft 2 kts 330°
2026-05-05 00:39 43.56977 -116.22606 2876 ft 0 kts
2026-05-05 00:39 43.56984 -116.22606 2876 ft 0 kts